Weather Roundup
Issued by NWS Chicago, IL

Home | Current Version | Previous Version | Graphics & Text | Print | Product List | Glossary Off
Versions: 1 2 3 4 5 6 7 8 9 10 11 12 13 14 15 16 17 18 19 20 21 22 23 24 25 26 27 28 29 30 31 32 33 34 35 36 37 38 39 40 41 42 43 44 45 46 47 48 49 50

000
NZUS59 KLOT 281510
HRRLOT

CHICAGO AREA WEATHER ROUNDUP
NATIONAL WEATHER SERVICE CHICAGO/ROMEOVILLE IL
1000 AM CDT THU AUG 28 2014

NOTE: "FAIR" INDICATES FEW OR NO CLOUDS BELOW 12,000 FEET WITH NO
SIGNIFICANT WEATHER AND/OR OBSTRUCTIONS TO VISIBILITY.

* THESE STATIONS ARE NOT UNDER NWS QUALITY CONTROL. THEY ALSO MAY NOT
  REPORT WEATHER SUCH AS PRECIPITATION OR FOG.

ILZ005-006-012>014-019>023-281600-
NORTHEAST ILLINOIS

CITY           SKY/WX    TMP DP  RH WIND       PRES   REMARKS
OHARE          MOSUNNY   72  53  51 E12       30.13S
MIDWAY         MOSUNNY   72  57  59 E12       30.13S
AURORA         SUNNY     73  56  54 E9        30.14R
LANSING*       SUNNY     71  57  61 E6        30.13S
JOLIET*        SUNNY     72  54  53 E7        30.14S
WAUKEGAN       SUNNY     68  52  56 E9G18     30.14S
DUPAGE AIRPORT SUNNY     73  56  54 E9        30.12S
WHEELING       SUNNY     72  54  53 E8        30.15S
KANKAKEE*      PTSUNNY   72  64  75 E7        30.12S
MORRIS*        SUNNY     72  59  62 E9        30.12S
LEWIS AIRPORT* SUNNY     71  55  57 E9        30.13S
NORTHERLY IS     N/A     69  57  65 E9          N/A
$$

WIZ051-052-058>065-066-070>072-281600-
SOUTHEAST WISCONSIN

CITY           SKY/WX    TMP DP  RH WIND       PRES   REMARKS
MILWAUKEE      MOSUNNY   69  56  62 SE14      30.15S
KENOSHA*       SUNNY     69  55  60 E12       30.15F
RACINE*        SUNNY     70  54  56 E13       30.17S
BURLINGTON     SUNNY     67  56  68 SE9       30.15R
WAUKESHA       SUNNY     66  55  68 E12       30.16S
WEST BEND      SUNNY     68  54  60 SE6       30.16S
$$

INZ001>003-010>013-019-020-281600-
NORTHWEST INDIANA

CITY           SKY/WX    TMP DP  RH WIND       PRES   REMARKS
GARY*          MOSUNNY   72  57  60 NE7       30.14S
MICHIGAN CITY* NOT AVBL
RENSSELAER*    NOT AVBL
VALPARAISO     SUNNY     69  60  73 E6        30.14S
$$

LMZ740>746-281600-
SOUTHERN LAKE MICHIGAN

STATION/POSITION TIME  SKY/WX   TEMP WIND        PRES    VSBY
                                AIR  DIR/SP/G
                 (UTC)          (F)  (DEG/KT/KT) (MB)    (MI)
HARRISON CRIB    1500            67   90/ 11/ 13   N/A
BURNHAM HARBOR   1500            69   70/  8/ 12   N/A
CALUMET HARBOR   1500            67   70/  6/  8 1019.2S
BURNS HARBOR     NOT AVBL
MICHIGAN CITY    1500            66   30/  3/  4   N/A
$$

ABBREVIATIONS USED IN REMARKS
   TC - TEMPERATURE IN CELSIUS
  WCI - WIND CHILL INDEX
   HX - HEAT INDEX
  VSB - VISIBILITY
$$



USA.gov is the U.S. government's official web portal to all federal, state and local government web resources and services.